Location: Newark
(39.6867°N, 100.6772°W)
Time: 01:31:42
(UTC+00:00)

Vanguard 1 Rocket - Pass Details

Date: 21 October 2019
Orbit: 651 x 4226 km, 34.3° (Epoch: 22 November)

Event Time Altitude Azimuth Distance (km) Brightness Sun altitude
Rises 21:10:43 0° 279° (W) 6,885 12.4 26.9°
Reaches altitude 10° 21:14:42 10° 276° (W) 6,229 12.3 26.3°
Maximum altitude 21:36:44 65° 202° (SSW) 4,445 11.7 23.1°
Drops below altitude 10° 22:01:26 10° 127° (SE) 6,834 11.7 19.2°
Sets 22:06:06 0° 125° (SE) 7,544 11.9 18.5°
